Regional Weather Roundup
Issued by NWS

Home | Current Version | Previous Version | Graphics & Text | Print | Product List | Glossary On
Versions: 1 2 3 4 5 6 7 8 9 10 11 12 13 14 15 16 17 18 19 20 21 22 23 24 25 26 27 28 29 30 31 32 33 34 35 36 37 38 39 40 41 42 43 44 45 46 47 48 49 50
864
ASUS45 KBOU 171810
RWRCO

WEATHER ROUNDUP FOR COLORADO
NATIONAL WEATHER SERVICE DENVER/BOULDER CO
1100 AM MST SUN DEC 17 2017

NOTE: "FAIR" INDICATES FEW OR NO CLOUDS BELOW 12000 FEET WITH NO
SIGNIFICANT WEATHER AND/OR OBSTRUCTIONS TO VISIBILITY.

COZ001>005-013-030-031-171900-
...NORTHWEST COLORADO...

CITY           SKY/WX    TMP DP  RH WIND       PRES   REMARKS
CRAIG          CLOUDY    26  19  74 CALM      30.08S
HAYDEN         CLOUDY    26  17  68 E3        30.08S
MEEKER         FAIR      29  12  49 CALM      30.07S
RABBIT EARS PA FOG       16  14  93 W12G17    29.97F VSB 1   WCI   3
STEAMBOAT SPGS CLOUDY    23  14  69 CALM      30.05F
WALDEN         FAIR      27  16  63 S15       29.98F WCI  15
$$

COZ006>008-011-171900-
...WEST CENTRAL VALLEYS...

CITY           SKY/WX    TMP DP  RH WIND       PRES   REMARKS
GRAND JUNCTION FAIR      33  11  39 SE5       30.09F WCI  29
MONTROSE       FAIR      34   6  31 CALM      30.10F
EAGLE          FAIR      19  10  68 CALM      30.10F
RIFLE          FAIR      28   9  44 CALM      30.09F
DELTA          FAIR      35   7  30 E3        30.10F
NUCLA          FAIR      32   1  27 CALM      30.11S
$$

COZ017>023-064>068-171900-
...SOUTHWEST COLORADO...

CITY           SKY/WX    TMP DP  RH WIND       PRES   REMARKS
DURANGO        FAIR      37   8  30 CALM      30.04S
CORTEZ         FAIR      44   7  21 CALM      30.04S
PAGOSA SPRINGS FAIR      37  -3  18 CALM      30.04F
TELLURIDE      FAIR      36  -1  20 CALM      30.06S
WOLF CREEK PAS FAIR      21  -4  33 S8        30.09S WCI  12
$$

COZ009-010-012-014-032>034-037-058>063-171900-
...CENTRAL COLORADO...

CITY           SKY/WX    TMP DP  RH WIND       PRES   REMARKS
ASPEN          FAIR      31   6  35 N6        30.01S WCI  25
BUENA VISTA    FAIR      32   8  36 SE3       29.98F
COPPER MTN     NOT AVBL
BERTHOUD PASS  FAIR      12   1  62 NW31      29.94F WCI -10
COTTONWOOD PAS FAIR      36  -2  20 N3        29.99S
GUNNISON       FAIR      25   9  50 CALM      30.07F
KREMMLING      FAIR      21  12  68 CALM      30.06F
LEADVILLE      FAIR      26  -3  28 NW3       29.98R
MONARCH PASS   FAIR      19  -2  38 W28G35    30.12F WCI   1
SALIDA         FAIR      32  11  41 CALM      30.05F
SUNLIGHT       FAIR      23  -2  33 SW8       30.06S WCI  14
WILKERSON PASS FAIR      21  -4  33 SW15G22   29.99F WCI   8
$$

COZ069>075-171900-
...SAN LUIS VALLEY/SANGRE DE CRISTO MOUNTAINS...

CITY           SKY/WX    TMP DP  RH WIND       PRES   REMARKS
ALAMOSA        FAIR      31  14  49 CALM      30.02F
DEL NORTE      FAIR      31  12  44 CALM      30.03S
LA VETA PASS   FAIR      30   7  37 SW25G35     N/A  WCI  16
SAGUACHE       FAIR      34   7  32 CALM      30.03S
$$

COZ035-036-038>040-171900-
...NORTHERN COLORADO FRONT RANGE...

CITY           SKY/WX    TMP DP  RH WIND       PRES   REMARKS
DENVER INTL AP CLOUDY    32  24  72 S5        29.99F WCI  27
DMNS CITY PARK NOT AVBL
AURORA         CLOUDY    32  25  77 S3        29.99F
FRONT RANGE AP CLOUDY    34  28  80 SE5       29.99F WCI  30
ERIE MUNI ARPT CLOUDY    34  28  77 SE5       30.05F WCI  30
BOULDER MUN AP CLOUDY    32  28  86 SE5       29.98F WCI  27
CENTENNIAL     CLOUDY    32  25  75 CALM      29.98F
BROOMFIELD     CLOUDY    32  27  80 SE5       29.99F WCI  27
FORT COLLINS   CLOUDY    35  26  69 S6        29.99F WCI  30
LONGMONT       CLOUDY    36  32  85 SE3       30.00F
$$

COZ041-046-047-076>085-087-088-171900-
...PIKES PEAK/PALMER DIVIDE AND SOUTHERN FOOTHILLS...

CITY           SKY/WX    TMP DP  RH WIND       PRES   REMARKS
COLO. SPRINGS  CLOUDY    28  22  78 CALM      30.00F
A. F. ACADEMY  CLOUDY    27  23  84 NW3       29.97F
SCHRIEVER AFB  CLOUDY    26  23  90 CALM      30.00F
CHEYENNE MTN   CLOUDY    24  22  92 SE5       29.91F WCI  19
ELLICOTT         N/A    N/A N/A N/A NW6       29.98F
FALCON         CLOUDY    25  24  96 W5        29.98F WCI  19
FORT CARSON    CLOUDY    30  23  74 S3        29.98F
LIMON          CLOUDY    30  25  81 W5        30.00F WCI  25
MONUMENT HILL  CLOUDY    27  23  86 CALM      29.97F
CANON CITY     CLOUDY    32  27  80 CALM      30.01F
WALSENBURG     MOCLDY    30  25  80 CALM      30.00S
TRINIDAD       FAIR      30  23  75 SW3       30.01F
$$

COZ042>045-048>051-090-091-171900-
...NORTHEAST COLORADO...

CITY           SKY/WX    TMP DP  RH WIND       PRES   REMARKS
GREELEY ARPT   PTSUNNY   36  31  82 CALM      30.01F
AKRON          CLOUDY    32  29  88 W7        30.00F WCI  26
BURLINGTON     CLOUDY    35  28  75 NW9       30.01F WCI  28
WRAY           CLOUDY    39  30  70 NW3       30.02F
YUMA           CLOUDY    34  28  80 W7        30.02F WCI  28
STERLING       CLOUDY    36  32  87 S3        30.00F
HOLYOKE        PTSUNNY   37  32  81 W6        30.02F
FORT MORGAN    PTSUNNY   34  32  92 SW5       30.01F WCI  30
$$

COZ086-089-092>099-171900-
...SOUTHEAST COLORADO...

CITY           SKY/WX    TMP DP  RH WIND       PRES   REMARKS
PUEBLO         CLOUDY    34  26  72 W3        30.02F
LA JUNTA       CLOUDY    37  27  67 W5        30.03F
LAMAR          CLOUDY    40  26  57 N12       30.02S
SPRINGFIELD      N/A     39  27  62 N18       30.00F
$$




USA.gov is the U.S. government's official web portal to all federal, state and local government web resources and services.